Location: Emblem
(62.4273°N, 6.4710°E)
Time: 20:21:55
(UTC+02:00)

Vanguard 2 - Pass Details

Date: 09 February 2023
Orbit: 553 x 2927 km, 32.9° (Epoch: 27 March)

Event Time Altitude Azimuth Distance (km) Brightness Sun altitude
Rises 23:33:21 0° 236° (WSW) 5,489 11.8 -40.3°
Enters shadow 23:36:01 - 228° (SW) 5,136 11.6 -40.4°
Reaches altitude 10° 23:38:28 10° 219° (SW) 4,896 - -40.5°
Maximum altitude 23:46:37 18° 185° (S) 4,769 - -40.9°
Drops below altitude 10° 23:55:55 10° 152° (SSE) 5,704 - -41.2°
Sets 00:02:47 0° 136° (SE) 6,776 - -41.4°
